www.pogodaiklimat.ru

Погода и климат >> Архив погоды >> Россия >> Калмыкия >> Юста


ПОГОДА в Юсте

  • Прогноз погоды в Юсте
  • Монитор погоды в Юсте
  • Климат города

АРХИВ ПОГОДЫ в Юсте

Время (UTC), дата Ветер
(напр.,м/с)
 
Видим.   Явления Облачность Т
(С)
Тd
(С)
f
(%)
Тe
(С)
Тes
(С)
Комфортность P
(гПа)
Po
(гПа)
Тmin
(С)
Tmax
(С)
R
(мм)
R24
(мм)
S
(см)
21 18.04 Ю 6
{11}
10 км 9/0
[Ac As]
+13.0 -0.9 38 +11 +11 1016.4 1016.1
00 19.04 Ю 3 10 км 9/0
[Ac As]
+11.7 -3.0 36 +11 +11 1014.3 1014.0
03 19.04 Ю 4 20 км 9/0
[Ac As]
+10.5 -1.4 43 +8 +9 1011.3 1011.0 +10.4
06 19.04 Ю 4 20 км 9/0
[Ac As]
+13.2 +3.9 53 +12 +14 1009.4 1009.1
09 19.04 ЮЗ 6-10
{12}
20 км 9/4 600 м
[Sc Ac As]
+19.2 +7.2 46 +19 +21 1007.2 1006.8
12 19.04 З 8-11
{15}
4000 м пыльная буря {метель} 10/8 300 м
[Cb calv Ac As]
+16.1 +5.1 48 +15 +15 1006.3 1006.0
15 19.04 ЮЗ 4
{11}
20 км {метель} 3/0
[Ac trans]
+16.1 +6.0 51 +15 +16 1004.9 1004.5 +19.9
18 19.04 Ю 1 10 км {метель} 10/0
[Ac und]
+12.1 +6.3 68 +12 +12 1003.9 1003.5
21 19.04 ЮЗ 5 10 км {ливн. осадки} 10/10 600 м
[Cb calv]
+11.1 +7.3 77 +8 +8 1003.2 1002.8
00 20.04 Ю 4 10 км {ливн. осадки} ясно +7.9 +5.9 87 +5 +5 1002.0 1001.6
03 20.04 Ю 4 20 км 10/0
[Ac und]
+9.3 +7.6 89 +6 +6 1000.9 1000.6 +7.8 0.0
06 20.04 ЮЗ 5 20 км в посл. час ливневой дождь 9/8 600 м
[Cb calv Ac cuf]
+11.0 +9.1 88 +8 +9 1000.6 1000.2
09 20.04 З 7-12
{12}
20 км 8/6 1000 м
[Cu med, cong Ac cuf]
+14.5 +6.8 60 +13 +14 1000.5 1000.1
12 20.04 ЮЗ 7-12
{13}
20 км 8/6 1000 м
[Cu med, cong Ac cuf]
+15.1 +5.9 54 +13 +14 1001.2 1000.8
15 20.04 З 6
{12}
20 км 4/3 1000 м
[Cu med, cong Ci fib]
+12.2 +5.2 62 +10 +10 1001.9 1001.6 +15.7 0.4
18 20.04 ЮЗ 2 10 км ясно +8.0 +6.0 87 +6 +6 1003.5 1003.1
21 20.04 З 3 10 км ясно +6.1 +5.6 97 +3 +3 1004.0 1003.6
00 21.04 З 2 10 км ясно +6.2 +5.7 97 +4 +4 1004.6 1004.3
03 21.04 С 4 4000 м слабый дождь 10/0 300 м
[As op]
+9.5 +9.2 98 +6 +7 1006.4 1006.1 +5.7 2
06 21.04 С 6
{11}
20 км {дождь} 10/10 600 м
[Sc]
+9.0 +7.6 91 +5 +5 1009.5 1009.1
09 21.04 С 6
{10}
20 км 6/6 1000 м
[Cu med, cong]
+13.6 +3.8 52 +12 +14 1010.4 1010.0
12 21.04 СЗ 6-11
{11}
20 км ясно +14.4 -3.9 28 +13 +16 1010.5 1010.1
15 21.04 СЗ 3
{11}
20 км 3/0
[Ac trans]
+13.8 -0.9 36 +13 +13 1010.7 1010.3 +14.8 0.0
18 21.04 ЮЗ 2 10 км ясно +8.4 +1.5 62 +7 +7 1010.9 1010.5
21 21.04 ЮЗ 3 10 км 3/0
[Ci fib]
+6.2 +1.8 73 +3 +3 1010.1 1009.8
00 22.04 ЮЗ 4 10 км 6/0
[Ac trans Ci fib]
+6.2 +1.9 74 +3 +3 1008.1 1007.7
03 22.04 ЮЗ 5 20 км 6/0
[Ac trans Ci fib]
+7.6 +3.6 76 +4 +4 1006.0 1005.6 +5.0
06 22.04 ЮЗ 7-12
{13}
20 км 8/0
[As trans Cs]
+13.6 +4.3 53 +11 +13 1004.4 1004.1
09 22.04 З 10-14
{14}
4000 м слабый дождь 10/0 300 м
[As op]
+12.4 +7.6 73 +9 +9 1003.7 1003.4
12 22.04 ЮЗ 6
{14}
20 км {дождь} 9/8 300 м
[St Ac trans]
+13.6 +9.4 76 +11 +12 1003.1 1002.7
15 22.04 З 5
{11}
20 км 8/5 600 м
[Cb calv Ac cuf]
+15.6 +7.3 58 +14 +15 1002.4 1002.1 +16.4 1
18 22.04 ЮЗ 3
{14}
4000 м слабый ливневой дождь 9/8 300 м
[Cb calv Ac cuf]
+11.5 +6.5 71 +10 +10 1004.7 1004.4
21 22.04 ЮЗ 4 10 км {ливн. осадки} 9/0
[Ac As]
+8.5 +5.7 83 +5 +5 1004.4 1004.1
00 23.04 ЮЗ 2 10 км {ливн. осадки} 10/8 600 м
[Cb calv Ac cuf]
+7.4 +6.5 94 +5 +5 1004.6 1004.2
03 23.04 З 5 20 км 3/0
[Ac cuf]
+7.6 +5.0 84 +4 +4 1006.0 1005.7 +7.0 0.3
06 23.04 З 6 20 км 3/3 1000 м
[Cu hum]
+12.5 +4.0 56 +10 +13 1007.5 1007.2
09 23.04 З 7
{13}
20 км 8/8 600 м
[Cb cap]
+13.6 +2.6 47 +11 +12 1008.2 1007.9
12 23.04 СЗ 7-11
{13}
20 км {ливн. осадки} 8/8 600 м
[Cb cap]
+13.2 +1.8 46 +11 +11 1008.8 1008.4
15 23.04 СЗ 5
{11}
20 км 9/8 600 м
[Cb cap Ac As]
+11.5 -0.8 43 +9 +9 1010.4 1010.1 +14.4 0.0
18 23.04 С 3 10 км 3/0
[Ac cuf]
+6.6 -0.4 61 +4 +4 1013.7 1013.3
21 23.04 СЗ 3 10 км 3/0
[Ac cast]
+3.3 -1.1 73 -0 -0 1014.9 1014.5
00 24.04 З 3 10 км ясно -1.2 -2.6 90 -6 -6 1016.2 1015.8
03 24.04 З 3 20 км ясно -0.1 -2.6 83 -5 -4 1017.9 1017.5 -1.9
06 24.04 З 6 20 км ясно +8.9 -7.5 31 +6 +10 1019.4 1019.0
09 24.04 З 5
{11}
20 км 3/3 1000 м
[Cu hum]
+11.5 -7.9 25 +10 +15 1019.5 1019.2
12 24.04 З 6-11
{11}
20 км 3/3 1000 м
[Cu hum]
+12.9 -7.9 23 +11 +14 1019.2 1018.8
15 24.04 З 4
{11}
20 км ясно +12.3 -6.9 26 +11 +11 1018.6 1018.2 +13.2
18 24.04 ЮЗ 3 10 км ясно +5.5 -3.4 53 +3 +3 1019.3 1018.9
21 24.04 Ю 3 10 км ясно +3.8 -2.6 63 0 0 1018.8 1018.4
00 25.04 Ю 3 10 км 10/0
[Ac As]
+7.2 -1.8 53 +5 +5 1018.2 1017.8
03 25.04 Ю 4 20 км 10/0
[Ac As]
+9.5 +0.4 53 +7 +7 1017.8 1017.4 +3.7
06 25.04 Ю 4 20 км {дождь} 10/10 600 м
[Sc]
+10.0 +6.8 80 +7 +7 1017.5 1017.1
09 25.04 ЮЗ 6-10
{12}
20 км 10/10 600 м
[Sc]
+17.0 +4.4 43 +16 +16 1016.5 1016.1
12 25.04 ЮЗ 6-11
{12}
20 км 9/9 600 м
[Sc]
+18.8 +2.9 35 +19 +19 1015.6 1015.2
15 25.04 ЮЗ 3
{12}
20 км 8/8 600 м
[Sc]
+17.3 +3.0 38 +17 +17 1015.4 1015.0 +19.0 0.0
18 25.04 Ю 4 10 км 8/0
[Ac trans Ci sp]
+12.0 +4.3 59 +10 +10 1015.6 1015.2

 

Местоположение метеостанции Юста (Калмыкия, Россия): широта 47.13 долгота 46.32 высота над уровнем моря 3 м.

В архиве по умолчанию представлена погода в Юсте за последнюю неделю. Архивные данные за месяц целиком и за предыдущие месяцы, начиная с января 2011 года, Вы можете получить, выбрав интересующий диапазон дат из раскрывающегося списка и нажав кнопку "Ввод!".


*Определитесь, кто Вы:
робот инопланетянин человек

Внимание! Время в таблицах - всемирное. Для получения местного времени необходимо прибавить поправку, которая в Юсте равна 3 ч.

Смотрите также архив погоды в соседних городах и на ближайших метеорологических станциях:

Погода в Харабали (Астраханская область, Россия) (76 км)
Погода в Утте (Калмыкия, Россия) (88 км)
Погода в Черный Яр (Астраханская область, Россия) (106 км)
Погода в Досанге (Астраханская область, Россия) (124 км)
Погода в Верхнем Баскунчаке (Астраханская область, Россия) (125 км)
Погода в Яшкуле (Калмыкия, Россия) (129 км)
Погода в Кетченерах (Калмыкия, Россия) (134 км)
Погода в Малых Дербетах (Калмыкия, Россия) (151 км)
Погода в Астрахани (Астраханская область, Россия) (158 км)
Погода в Лимане (Астраханская область, Россия) (163 км)

Пояснения к столбцам:

Ветер - указаны скорость ветра в м/с - средняя за 10 мин, порывы в срок и между сроками (в фигурных скобках) и направление, откуда дует ветер: С - северный, СВ - северо-восточный, В - восточный, ЮВ - юго-восточный, Ю - южный, ЮЗ - юго-западный, З - западный, СЗ - северо-западный.
Видимость - горизонтальная дальность видимости в метрах или километрах. При видимости от 1 до 10 км при отсутствии осадков обычно наблюдается дымка, при ухудшении видимости до 1 км и менее - туман. В сухую погоду видимость может ухудшаться дымом, пылью или мглою.
Явления - указаны атмосферные явления, наблюдавшиеся в срок или в последний час перед сроком; фигурными скобками обозначены явления, наблюдавшиеся между сроками (за 1-3 часа до срока); квадратными скобками обозначены град или гололедные отложения с указанием их диаметра в мм.
Облачность - указаны через наклонную черту общая и нижняя облачность в баллах и высота нижней границы облаков в метрах; квадратными скобками обозначены формы облаков: Ci - перистые, Cs - перисто-слоистые, Cc - перисто-кучевые, Ac - высококучевые, As - высокослоистые, Sc - слоисто-кучевые, Ns - слоисто-дождевые, Cu - кучевые, Cb - кучево-дождевые. Подробнее классификацию облаков см. в Атласе облаков (PDF).
T - Температура воздуха - температура, измеренная на высоте 2 м над землей.
Td - Температура точки росы - температура, при понижении до которой содержащийся в воздухе водяной пар достигнет насыщения.
f - Относительная влажность воздуха - влажноcть воздуха, измеренная на высоте 2 м над землей.
Te - Эффективная температура - температура, которую ощущает одетый по сезону человек в тени. Характеристика душности погоды. При расчете учитывается влияние влажности воздуха и скорости ветра на теплоощущения человека.
Tes - Эффективная температура на солнце - температура, которую ощущает человек, с поправкой на солнечный нагрев. Характеристика знойности погоды. Зависит от высоты солнца над горизонтом, облачности и скорости ветра. Ночью, в пасмурную погоду, а также при ветре 12 м/с и более поправка равна нулю.
P - Атмосферное давление - приведенное к уровню моря атмосферное давление.
Po - Атмосферное давление - измеренное на уровне метеостанции атмосферное давление.
Tmin - Минимальная температура - минимум температуры воздуха на высоте 2 м над землей.
Tmax - Максимальная температура - максимум температуры воздуха на высоте 2 м над землей.
R - Количество осадков - Количество выпавших осадков за период времени, мм. При наведении курсора мыши на число - период времени, за который выпало указанное количество осадков.
R24 - Количество осадков - Количество выпавших осадков за 24 часа, мм.
S - Снежный покров - Высота снежного покрова, см. При наведении курсора мыши на число - состояние снежного покрова и степень покрытия местности в баллах.